[[{"header":{"parameterUnit":"m.s-1","parameterCategory":1,"la1":30.2991,"la2":30.254,"lo1":-89.0895,"lo2":-89.0444,"dy":0.0017,"dx":0.0017,"nx":28,"ny":28,"refTime":"2025-09-02T09:00:00:Z","depth":0,"parameterNumber":2,"parameterNumberName":"U-component_of_WINDS"},"data":[0,0,0,0,0,0,0,0,0,0,0,0,0,0,0,0,0,0,0,0,0,0,0,0,0,0,0,0,0,0,0,0,0,0,0,0,0,0,0,0,0,0,0,0,0,0,0,0,0,0,0,0,0,0,0,0,0,0,-1.2104,-1.2104,0,-1.212,-1.212,-1.212,-1.21,-1.2099,-1.2099,-1.2098,-1.2115,-1.2116,-1.2117,0,0,0,0,0,0,0,0,0,0,0,0,0,-1.2057,-1.2058,-1.2104,-1.2104,-1.2104,-1.212,-1.212,-1.212,-1.21,-1.2099,-1.2098,-1.2098,-1.2115,-1.2116,-1.2117,0,0,0,0,0,0,0,0,0,0,0,0,0,-1.2076,-1.2058,-1.2104,-1.2096,-1.2096,-1.212,-1.212,-1.212,-1.21,-1.2099,-1.2098,-1.2097,-1.2114,-1.2116,-1.2117,-1.215,0,0,-1.2123,-1.2123,0,0,0,0,0,0,0,0,-1.2075,-1.2077,-1.2097,-1.2097,-1.2096,-1.2107,-1.211,-1.213,-1.2101,-1.2099,-1.2098,-1.2097,-1.2113,-1.2115,-1.212,-1.2151,-1.2152,-1.2123,-1.2124,-1.2125,-1.2125,0,0,0,0,0,0,0,-1.2073,-1.2077,-1.211,-1.2097,-1.2097,-1.2092,-1.2094,-1.2114,-1.2112,-1.2099,-1.2097,-1.2099,-1.2113,-1.2119,-1.2121,-1.2152,-1.2123,-1.2124,-1.2125,-1.2126,-1.2211,-1.2213,0,0,0,0,0,0,-1.2073,-1.2076,-1.211,-1.2111,-1.2082,-1.2094,-1.2096,-1.2105,-1.2112,-1.2112,-1.21,-1.2098,-1.2116,-1.2119,-1.2121,-1.216,-1.2125,-1.2126,-1.2127,-1.221,-1.2212,-1.2213,0,0,0,0,0,0,-1.2072,-1.2076,-1.2109,-1.2093,-1.2097,-1.2096,-1.2106,-1.2105,-1.2111,-1.2113,-1.2113,-1.2107,-1.2116,-1.2119,-1.2143,-1.216,-1.2127,-1.2129,-1.2209,-1.2211,-1.2212,-1.2239,0,0,0,0,0,0,-1.2071,-1.2076,-1.2088,-1.2093,-1.2098,-1.2131,-1.2107,-1.2107,-1.2114,-1.2112,-1.2119,-1.2119,-1.2115,-1.2141,-1.2145,-1.2162,-1.213,-1.2207,-1.221,-1.2212,-1.2236,-1.2241,-1.2245,0,0,0,0,0,-1.2069,-1.2095,-1.2089,-1.2093,-1.2113,-1.2132,-1.2134,-1.2129,-1.2116,-1.2128,-1.2129,-1.2119,-1.2158,-1.2144,-1.2148,-1.2166,-1.2206,-1.2209,-1.2212,-1.2234,-1.224,-1.2245,0,0,0,0,0,0,-1.2092,-1.2095,-1.2088,-1.2117,-1.2124,-1.2128,-1.2143,-1.2135,-1.2147,-1.2144,-1.2137,-1.2139,-1.2165,-1.2168,-1.2152,-1.2199,-1.218,-1.2184,-1.2196,-1.2201,-1.2206,-1.2204,-1.2131,0,0,0,0,0,-1.21,-1.2115,-1.2117,-1.2142,-1.2146,-1.2144,-1.2152,-1.2148,-1.2155,-1.2158,-1.2161,-1.2169,-1.2183,-1.2192,-1.2206,-1.2237,-1.2238,-1.2252,-1.2256,-1.226,-1.2263,-1.228,-1.2286,-1.2222,-1.2222,-1.2222,0,0,-1.2117,-1.2121,-1.213,-1.2146,-1.2151,-1.2167,-1.2147,-1.2164,-1.2176,-1.2161,-1.2184,-1.2187,-1.2195,-1.2223,-1.2236,-1.2226,-1.2281,-1.2263,-1.2266,-1.2267,-1.2284,-1.229,-1.2295,-1.2224,-1.2224,-1.2223,0,0,-1.2156,-1.2161,-1.2181,-1.2187,-1.2195,-1.2194,-1.2199,-1.2205,-1.2206,-1.2229,-1.2218,-1.2233,-1.2257,-1.2264,-1.227,-1.2313,-1.2304,-1.2318,-1.2341,-1.2358,-1.2363,-1.2367,-1.2383,-1.2388,-1.2321,-1.2321,-1.2321,0,-1.2176,-1.2199,-1.2193,-1.2212,-1.2219,-1.2206,-1.2228,-1.2234,-1.2246,-1.2252,-1.2241,-1.2272,-1.2277,-1.2306,-1.2317,-1.2323,-1.2329,-1.2316,-1.2363,-1.2367,-1.2371,-1.2385,-1.2391,-1.2323,-1.2322,-1.2322,-1.2322,0,-1.2224,-1.224,-1.2256,-1.2268,-1.2277,-1.2297,-1.2295,-1.2305,-1.23,-1.2301,-1.2325,-1.233,-1.2344,-1.2351,-1.2347,-1.2381,-1.2375,-1.2364,-1.2345,-1.2379,-1.2392,-1.2398,-1.2325,-1.2324,-1.2324,-1.2323,0,0,-1.2277,-1.2286,-1.2292,-1.2297,-1.2305,-1.2318,-1.2338,-1.2351,-1.236,-1.237,-1.2386,-1.2408,-1.2398,-1.2405,-1.2401,-1.2416,-1.245,-1.2403,-1.2403,-1.2411,-1.2488,-1.2495,-1.2502,-1.2444,-1.2445,-1.2446,-1.2487,0,-1.2316,-1.2349,-1.2345,-1.2377,-1.2392,-1.2381,-1.2398,-1.2405,-1.2406,-1.242,-1.2421,-1.2436,-1.2422,-1.2427,-1.2441,-1.2443,-1.2465,-1.244,-1.2459,-1.246,-1.2457,-1.2509,-1.2517,-1.2555,-1.2492,-1.2493,-1.2494,0,-1.2365,-1.2376,-1.241,-1.2416,-1.2423,-1.2438,-1.2451,-1.2463,-1.2472,-1.2472,-1.248,-1.2474,-1.2494,-1.2476,-1.2504,-1.2487,-1.2495,-1.2497,-1.2498,-1.25,-1.2478,-1.2511,-1.2568,-1.2573,-1.2502,-1.2501,-1.2501,0,-1.2401,-1.2424,-1.2447,-1.2452,-1.246,-1.2471,-1.2475,-1.2482,-1.2491,-1.2502,-1.2508,-1.2522,-1.2529,-1.254,-1.2538,-1.2524,-1.2567,-1.2548,-1.2567,-1.2567,-1.2576,-1.2575,-1.2634,-1.2582,-1.2582,-1.2582,-1.2582,0,-1.2444,-1.2465,-1.2463,-1.2477,-1.25,-1.2496,-1.2519,-1.2522,-1.2529,-1.2543,-1.2535,-1.2549,-1.2545,-1.256,-1.2558,-1.2582,-1.2585,-1.2586,-1.2585,-1.2586,-1.2586,-1.2591,-1.2588,-1.2583,-1.2583,-1.2583,-1.2582,0,-1.2487,-1.2486,-1.251,-1.2516,-1.2518,-1.2535,-1.2541,-1.2554,-1.2555,-1.2574,-1.2578,-1.2579,-1.2596,-1.2595,-1.2614,-1.2613,-1.2642,-1.2638,-1.2639,-1.2638,-1.2657,-1.2655,-1.2721,-1.2729,-1.2672,-1.2672,-1.2673,0,-1.2515,-1.2531,-1.2538,-1.2548,-1.2552,-1.2567,-1.2576,-1.2573,-1.2582,-1.2593,-1.2606,-1.2622,-1.2634,-1.2661,-1.2664,-1.2678,-1.2674,-1.2696,-1.2677,-1.2677,-1.2675,-1.2673,-1.2675,-1.27,-1.2701,-1.2701,-1.2702,0,-1.2564,-1.2563,-1.2576,-1.2589,-1.26,-1.261,-1.2619,-1.2627,-1.2625,-1.2636,-1.2653,-1.2662,-1.2682,-1.2697,-1.2711,-1.2716,-1.2709,-1.2708,-1.2713,-1.2714,-1.2714,-1.2714,-1.2649,-1.2706,-1.2706,-1.2706,-1.2705,-1.2705,-1.26,-1.2614,-1.2622,-1.2636,-1.2643,-1.2652,-1.2665,-1.2667,-1.2681,-1.2696,-1.2693,-1.2712,-1.2721,-1.2739,-1.2745,-1.276,-1.2752,-1.276,-1.2761,-1.2763,-1.2765,-1.2712,-1.2762,-1.2762,-1.2762,-1.2762,-1.2762,0,-1.2649,-1.2654,-1.2667,-1.268,-1.2692,-1.2684,-1.2694,-1.2705,-1.2721,-1.273,-1.2742,-1.2761,-1.2777,-1.2781,-1.2796,-1.2807,-1.2804,-1.2811,-1.281,-1.2812,-1.2772,-1.2765,-1.2814,-1.2814,-1.2814,-1.2813,-1.2813,-1.2813,-1.2676,-1.2699,-1.2699,-1.2725,-1.2729,-1.2747,-1.2753,-1.2762,-1.2769,-1.2791,-1.2803,-1.2806,-1.2813,-1.2828,-1.2842,-1.2843,-1.2849,-1.2858,-1.2857,-1.282,-1.2814,-1.2809,-1.2804,-1.2859,-1.2859,-1.2896,-1.2896,-1.2896]},{"header":{"parameterUnit":"m.s-1","parameterCategory":1,"la1":30.2991,"la2":30.254,"lo1":-89.0895,"lo2":-89.0444,"dy":0.0017,"dx":0.0017,"nx":28,"ny":28,"refTime":"2025-09-02T09:00:00:Z","depth":0,"parameterNumber":3,"parameterNumberName":"V-component_of_WINDS"},"data":[0,0,0,0,0,0,0,0,0,0,0,0,0,0,0,0,0,0,0,0,0,0,0,0,0,0,0,0,0,0,0,0,0,0,0,0,0,0,0,0,0,0,0,0,0,0,0,0,0,0,0,0,0,0,0,0,0,0,2.7711,2.7711,0,2.77,2.77,2.77,2.7703,2.7703,2.7703,2.7703,2.7689,2.7688,2.7688,0,0,0,0,0,0,0,0,0,0,0,0,0,2.7731,2.7731,2.7711,2.7711,2.7711,2.77,2.77,2.77,2.7703,2.7703,2.7703,2.7703,2.7689,2.7688,2.7688,0,0,0,0,0,0,0,0,0,0,0,0,0,2.7722,2.7731,2.7711,2.7711,2.7711,2.77,2.77,2.77,2.7703,2.7703,2.7703,2.7704,2.7689,2.7688,2.7688,2.7676,0,0,2.7685,2.7685,0,0,0,0,0,0,0,0,2.7722,2.7721,2.7711,2.7711,2.7711,2.7703,2.7702,2.7692,2.7703,2.7706,2.7703,2.7704,2.7693,2.7692,2.7689,2.7675,2.7674,2.7685,2.7684,2.7684,2.7684,0,0,0,0,0,0,0,2.7723,2.7721,2.7707,2.7711,2.7711,2.7711,2.771,2.77,2.7698,2.7705,2.7706,2.7704,2.7693,2.769,2.7689,2.7674,2.7685,2.7684,2.7684,2.7683,2.7649,2.7648,0,0,0,0,0,0,2.7724,2.7722,2.7707,2.7707,2.7718,2.771,2.7709,2.7705,2.7698,2.7697,2.7704,2.7705,2.7691,2.769,2.7688,2.7673,2.7684,2.7683,2.7683,2.7649,2.7649,2.7648,0,0,0,0,0,0,2.7725,2.7723,2.7708,2.7714,2.7712,2.7709,2.7705,2.7705,2.7702,2.7697,2.7696,2.7702,2.7692,2.769,2.7679,2.7673,2.7683,2.7682,2.765,2.7649,2.7649,2.7644,0,0,0,0,0,0,2.7725,2.7723,2.7719,2.7714,2.7712,2.7699,2.7705,2.7705,2.7701,2.7701,2.7694,2.7693,2.7692,2.768,2.7678,2.7672,2.7681,2.765,2.7649,2.7649,2.7644,2.7643,2.7642,0,0,0,0,0,2.7726,2.7718,2.7719,2.7717,2.7707,2.7699,2.7698,2.7697,2.77,2.7696,2.7693,2.7694,2.7674,2.7679,2.7677,2.767,2.765,2.765,2.7649,2.7645,2.7643,2.7642,0,0,0,0,0,0,2.7721,2.7717,2.7718,2.7708,2.7704,2.7699,2.7694,2.7695,2.7689,2.7689,2.7688,2.7686,2.7675,2.7672,2.7677,2.7658,2.7663,2.7661,2.766,2.7659,2.7658,2.7658,2.7681,0,0,0,0,0,2.7719,2.7713,2.771,2.7701,2.7699,2.7697,2.7693,2.7693,2.7688,2.7686,2.7682,2.7676,2.7669,2.7664,2.7657,2.7644,2.7642,2.7638,2.7637,2.7636,2.7634,2.7627,2.7625,2.7645,2.7645,2.7645,0,0,2.7714,2.7711,2.7707,2.77,2.7697,2.769,2.7695,2.7688,2.7683,2.7684,2.7674,2.7671,2.7664,2.7653,2.7647,2.7649,2.7628,2.7635,2.7634,2.7633,2.7626,2.7624,2.7622,2.7645,2.7645,2.7645,0,0,2.7701,2.7699,2.7692,2.7688,2.7684,2.7682,2.7681,2.7676,2.7674,2.7664,2.7665,2.7658,2.7646,2.7641,2.7637,2.7623,2.7623,2.762,2.7613,2.7606,2.7604,2.7603,2.7597,2.7595,2.7619,2.7619,2.7619,0,2.7695,2.7687,2.7687,2.768,2.7677,2.7679,2.7671,2.7667,2.766,2.7657,2.766,2.7644,2.764,2.7626,2.7623,2.762,2.7617,2.7621,2.7605,2.7603,2.7602,2.7596,2.7594,2.7619,2.7619,2.7619,2.7619,0,2.7679,2.7673,2.7668,2.7662,2.7657,2.765,2.7648,2.7644,2.7644,2.7642,2.7631,2.7626,2.7618,2.7615,2.7615,2.7602,2.7603,2.7605,2.761,2.76,2.7594,2.7592,2.7618,2.7618,2.7618,2.7618,0,0,2.7663,2.7658,2.7656,2.7653,2.7648,2.7642,2.7635,2.7628,2.7623,2.7618,2.7611,2.76,2.7602,2.7598,2.7597,2.7591,2.7579,2.7594,2.7593,2.759,2.7563,2.7561,2.7558,2.7579,2.7579,2.7579,2.7563,0,2.765,2.7637,2.7637,2.7625,2.7619,2.7621,2.7614,2.7609,2.7607,2.7601,2.7598,2.759,2.7594,2.7591,2.7585,2.7582,2.7573,2.7583,2.7571,2.7571,2.7572,2.7555,2.7553,2.7538,2.7561,2.7561,2.7561,0,2.7632,2.7628,2.7615,2.7611,2.7608,2.7602,2.7595,2.759,2.7584,2.7583,2.7578,2.7578,2.7569,2.7575,2.7561,2.7568,2.7563,2.7561,2.756,2.7558,2.7564,2.7552,2.7534,2.7531,2.7557,2.7558,2.7558,0,2.7621,2.7611,2.7602,2.76,2.7595,2.759,2.7588,2.7583,2.7579,2.7573,2.757,2.7562,2.7558,2.7551,2.7549,2.7554,2.7536,2.7541,2.7533,2.7533,2.7528,2.7529,2.7508,2.7527,2.7527,2.7527,2.7527,0,2.7605,2.7597,2.7597,2.7591,2.7582,2.7582,2.7573,2.757,2.7566,2.7559,2.756,2.7554,2.7552,2.7544,2.7542,2.7531,2.7529,2.7527,2.7526,2.7526,2.7527,2.7523,2.7523,2.7526,2.7527,2.7527,2.7527,0,2.759,2.759,2.758,2.7577,2.7576,2.7569,2.7565,2.7559,2.7558,2.7549,2.7547,2.7544,2.7535,2.7532,2.7522,2.752,2.7507,2.7507,2.7509,2.7508,2.75,2.7501,2.7476,2.7472,2.7494,2.7494,2.7494,0,2.758,2.7574,2.757,2.7566,2.7564,2.7557,2.7553,2.7553,2.7548,2.7542,2.7536,2.7528,2.7522,2.7507,2.7503,2.7495,2.7495,2.7487,2.7493,2.7493,2.7494,2.7494,2.7492,2.7485,2.7485,2.7485,2.7485,0,2.7562,2.7562,2.7557,2.7551,2.7546,2.7541,2.7537,2.7533,2.7532,2.7527,2.7519,2.7514,2.7503,2.7494,2.7486,2.7482,2.7482,2.7483,2.748,2.748,2.748,2.7479,2.7504,2.7483,2.7483,2.7483,2.7483,2.7483,2.7548,2.7543,2.7539,2.7533,2.753,2.7526,2.752,2.7518,2.7511,2.7503,2.7503,2.7494,2.7488,2.7477,2.7473,2.7465,2.7467,2.7464,2.7463,2.7462,2.746,2.7483,2.7463,2.7463,2.7463,2.7463,2.7463,0,2.753,2.7528,2.7522,2.7516,2.7511,2.7513,2.7508,2.7503,2.7495,2.7491,2.7484,2.7474,2.7466,2.7461,2.7453,2.7447,2.7447,2.7445,2.7444,2.7443,2.7459,2.7462,2.7445,2.7445,2.7445,2.7445,2.7445,2.7445,2.7519,2.751,2.751,2.7498,2.7496,2.7488,2.7485,2.748,2.7476,2.7466,2.7459,2.7457,2.7452,2.7443,2.7435,2.7433,2.743,2.7427,2.7426,2.744,2.7442,2.7444,2.7447,2.7426,2.7426,2.741,2.741,2.741]}]]